Flag for Germany Weather past 2 weeks in Kassel, Hesse, Germany

Now
37 °F

Light rain. Mostly cloudy.


Feels Like: 33 °F
Forecast: 27 / 42 °F
Wind: 6 mph from West

Location: Kassel / Calden

Current Time: Feb 27, 2015 at 1:18:48 PM

Latest Report: Feb 27, 2015 at 12:50 PM


Visibility: 5 mi

Pressure: 29.89 "Hg

Humidity: 93%

Dew point: 36 °F

Location of KasselLocation

Historic Weather in Kassel — Graph

°F

Kassel temperature yesterday

Maximum temperature yesterday: 46 °F (at 2:50 PM)
Minimum temperature yesterday: 36 °F (at 5:50 AM)
Average temperature yesterday: 41 °F

Past Weeks' High & Low Weather Summary

 TemperatureHumidityPressure
High48 °F (Feb 20, 9:20 PM)100% (Feb 13, 9:50 AM)30.74 "Hg (Feb 13, 9:50 AM)
Low23 °F (Feb 15, 7:20 AM)49% (Feb 22, 3:20 PM)29.36 "Hg (Feb 21, 6:50 AM)
Average36 °F81%29.98 "Hg
* Reported Feb 12 12:20 PM — Feb 27 12:20 PM, Kassel, Weather by CustomWeather, © 2015

Note: Actual official high and low records may vary slightly from our data, if they occured in-between our weather recording intervals... More about our weather records

Advertising

Kassel weather history for previous 24 hours

 ConditionsComfort  
Time TempWeatherWind HumidityBarometerVisibility
12:20 PM
Fri, Feb 27
37 °FLight rain. Low clouds.3 mph87%29.89 "Hg4 mi
11:50 AM36 °FLight rain. Mostly cloudy.2 mph93%29.86 "Hg4 mi
11:20 AM36 °FLight rain. Low clouds.3 mph93%29.86 "Hg4 mi
10:50 AM34 °FLight rain. Mostly cloudy.5 mph100%29.86 "Hg2 mi
10:20 AM34 °FLight snow. Mostly cloudy.6 mph100%29.86 "Hg2 mi
9:50 AM34 °FLight snow. Overcast.5 mph93%29.83 "Hg2 mi
9:20 AM34 °FLight rain. Mostly cloudy.5 mph93%29.83 "Hg3 mi
8:50 AM34 °FLight rain. Mostly cloudy.6 mph100%29.83 "Hg4 mi
8:20 AM36 °FLight rain. Overcast.6 mph93%29.83 "Hg4 mi
7:50 AM36 °FLight rain. Overcast.8 mph93%29.80 "HgN/A
7:20 AM36 °FLight rain. Overcast.7 mph87%29.80 "HgN/A
6:50 AM37 °FLight rain. Mostly cloudy.6 mph81%29.80 "HgN/A
6:20 AM37 °FLight rain. Low clouds.7 mph75%29.80 "HgN/A
5:50 AM39 °FLight rain. Partly cloudy.3 mph70%29.77 "HgN/A
9:50 PM
Thu, Feb 26
41 °FClear.9 mph70%29.89 "Hg10 mi
9:20 PM41 °FClear.9 mph70%29.89 "Hg10 mi
8:50 PM41 °FClear.7 mph76%29.92 "Hg10 mi
8:20 PM41 °FPassing clouds.7 mph76%29.92 "HgN/A
7:50 PM41 °FPassing clouds.10 mph76%29.92 "HgN/A
7:20 PM41 °FPassing clouds.8 mph76%29.95 "HgN/A
6:50 PM41 °FPassing clouds.9 mph76%29.95 "HgN/A
6:20 PM41 °FPassing clouds.12 mph76%29.98 "HgN/A
5:50 PM43 °FPartly sunny.10 mph71%29.98 "HgN/A
5:20 PM43 °FPartly sunny.12 mph66%29.98 "HgN/A
4:50 PM45 °FPartly sunny.13 mph61%29.98 "HgN/A
4:20 PM45 °FPartly sunny.13 mph66%29.98 "HgN/A
3:50 PM45 °FScattered clouds.13 mph61%30.01 "HgN/A
3:20 PM45 °FPartly sunny.13 mph66%30.01 "HgN/A
2:50 PM46 °FPartly sunny.12 mph62%30.01 "HgN/A
2:20 PM45 °FBroken clouds.14 mph66%30.04 "HgN/A
1:50 PM43 °FBroken clouds.13 mph66%30.04 "HgN/A
1:20 PM45 °FPartly sunny.16 mph66%30.07 "HgN/A
Weather by CustomWeather, © 2015

See weather overviewHow to use our weather pages